Date String (YYYY-MM-DD hh:mm:ss) UTC,Instrument flags,absolute air pressure of the measurement (hPa),sample flow rate (lpm),inlet stack bypass flow (lpm),air temperature of the measurement (°C),ambient temperature measured by the external sensor (°C),aerosol sample conditioner tube jacket temperature (°C),OPC LED temperature (°C),internal box temperature (°C),relative humidity of the measurement (%),span deviation,mass concentration of particles derived from Lorenz-Mie calculation of OPC scattering (μg/m³),mass concentration of particles derived from Lorenz-Mie calculation of OPC scattering (μg/m³),mass concentration of particles derived from Lorenz-Mie calculation of OPC scattering (μg/m³)
DateTimeUTC,F1_M11,P_M11,Q1_M11,Q2_M11,T1_M11,T2_M11,T3_M11,T4_M11,T5_M11,U1_M11,ZSPAN_M11,X0_M11,X2_M11,X1_M11
2023-09-21 03:00:00,SystemResetWarning,0827.7,5.00,000.00,027.8,025.7,000.0,036.2,029.3,20.9,0000.0,0011.35,0003.16,0002.31
2023-09-21 03:01:00,SystemResetWarning,0827.7,4.99,000.00,027.8,025.9,000.0,036.2,029.4,20.2,0000.0,0011.27,0003.16,0002.32
2023-09-21 03:02:00,SystemResetWarning,0827.7,5.00,000.00,027.8,026.1,000.0,036.2,029.4,19.7,0000.0,0010.63,0003.09,0002.27
2023-09-21 03:03:00,SystemResetWarning,0827.7,5.00,000.00,027.8,026.3,000.0,036.2,029.5,19.7,0000.0,0010.13,0003.03,0002.23
2023-09-21 03:04:00,SystemResetWarning,0827.7,4.99,000.00,027.8,026.4,000.0,036.2,029.5,19.5,0000.0,0009.65,0003.10,0002.23
2023-09-21 03:05:00,SystemResetWarning,0827.8,5.00,000.00,027.9,026.5,000.0,036.2,029.6,19.8,0000.0,0009.96,0003.09,0002.22
2023-09-21 03:06:00,SystemResetWarning,0827.8,5.01,000.00,027.9,026.6,000.0,036.3,029.6,19.9,0000.0,0009.62,0003.02,0002.21
2023-09-21 03:07:00,SystemResetWarning,0827.7,5.00,000.00,027.9,026.7,000.0,036.3,029.6,20.1,0000.0,0009.44,0002.97,0002.21
2023-09-21 03:08:00,SystemResetWarning,0827.8,5.00,000.00,028.0,026.8,000.0,036.3,029.7,19.7,0000.0,0009.06,0003.00,0002.20
2023-09-21 03:09:00,SystemResetWarning,0827.8,5.01,000.00,028.0,026.9,000.0,036.3,029.7,19.4,0000.0,0008.04,0003.05,0002.22
2023-09-21 03:10:00,SystemResetWarning,0827.8,5.00,000.00,028.0,026.9,000.0,036.3,029.7,19.3,0000.0,0007.96,0003.03,0002.22
2023-09-21 03:11:00,SystemResetWarning,0827.8,4.99,000.00,028.1,027.0,000.0,036.3,029.8,19.2,0000.0,0008.06,0003.00,0002.22
2023-09-21 03:12:00,SystemResetWarning,0827.8,5.00,000.00,028.1,027.0,000.0,036.3,029.8,19.3,0000.0,0008.18,0003.01,0002.22
2023-09-21 03:13:00,SystemResetWarning,0827.8,5.00,000.00,028.1,027.1,000.0,036.4,029.8,19.3,0000.0,0008.51,0003.12,0002.23
2023-09-21 03:14:00,SystemResetWarning,0827.7,5.00,000.00,028.2,027.1,000.0,036.4,029.9,19.7,0000.0,0008.89,0003.20,0002.25
2023-09-21 03:15:00,SystemResetWarning,0827.8,5.00,000.00,028.2,027.1,000.0,036.4,029.9,19.6,0000.0,0008.57,0003.20,0002.27
2023-09-21 03:16:00,SystemResetWarning,0827.8,5.00,000.00,028.2,026.9,000.0,036.4,029.8,19.6,0000.0,0008.27,0003.20,0002.30
2023-09-21 03:17:00,SystemResetWarning,0827.7,5.00,000.00,028.1,025.1,000.0,036.4,029.4,19.6,0000.0,0008.66,0003.21,0002.32
2023-09-21 03:18:00,SystemResetWarning,0827.7,5.01,000.00,028.0,024.2,000.0,036.3,029.2,19.7,0000.0,0009.63,0003.25,0002.34
2023-09-21 03:19:00,SystemResetWarning,0827.7,5.01,000.00,027.9,024.3,000.0,036.3,029.2,20.1,0000.0,0009.95,0003.26,0002.37
2023-09-21 03:20:00,SystemResetWarning,0827.7,5.00,000.00,027.8,024.5,000.0,036.3,029.1,20.3,0000.0,0009.87,0003.26,0002.38
2023-09-21 03:21:00,SystemResetWarning,0827.7,5.00,000.00,027.8,024.9,000.0,036.3,029.2,20.2,0000.0,0009.70,0003.26,0002.39
2023-09-21 03:22:00,SystemResetWarning,0827.7,5.00,000.00,027.8,025.2,000.0,036.3,029.2,20.2,0000.0,0009.32,0003.28,0002.41
2023-09-21 03:23:00,SystemResetWarning,0827.8,5.00,000.00,027.8,025.5,000.0,036.3,029.3,20.2,0000.0,0009.23,0003.27,0002.42
2023-09-21 03:24:00,SystemResetWarning,0827.7,5.00,000.00,027.8,025.8,000.0,036.3,029.3,19.8,0000.0,0008.88,0003.23,0002.45
2023-09-21 03:25:00,SystemResetWarning,0827.7,5.00,000.00,027.8,026.0,000.0,036.3,029.4,19.7,0000.0,0008.70,0003.19,0002.48
2023-09-21 03:26:00,SystemResetWarning,0827.7,5.00,000.00,027.8,026.1,000.0,036.3,029.4,19.6,0000.0,0008.97,0003.18,0002.48
2023-09-21 03:27:00,SystemResetWarning,0827.8,5.00,000.00,027.8,026.3,000.0,036.3,029.4,19.7,0000.0,0008.90,0003.18,0002.48
2023-09-21 03:28:00,SystemResetWarning,0827.8,5.01,000.00,027.9,026.4,000.0,036.3,029.5,19.9,0000.0,0008.35,0003.19,0002.48
2023-09-21 03:29:00,SystemResetWarning,0827.8,5.01,000.00,027.9,026.5,000.0,036.3,029.5,19.7,0000.0,0008.00,0003.20,0002.47
2023-09-21 03:30:00,SystemResetWarning,0827.8,4.99,000.00,027.9,026.6,000.0,036.3,029.6,19.6,0000.0,0007.59,0003.19,0002.48
2023-09-21 03:31:00,SystemResetWarning,0827.8,4.99,000.00,028.0,026.7,000.0,036.3,029.6,19.5,0000.0,0007.51,0003.18,0002.49
2023-09-21 03:32:00,SystemResetWarning,0827.8,5.00,000.00,028.0,026.8,000.0,036.3,029.7,19.1,0000.0,0007.62,0003.18,0002.49
2023-09-21 03:33:00,SystemResetWarning,0827.9,5.00,000.00,028.0,026.8,000.0,036.3,029.7,18.8,0000.0,0007.57,0003.19,0002.50
2023-09-21 03:34:00,SystemResetWarning,0827.9,5.00,000.00,028.1,026.9,000.0,036.3,029.8,18.7,0000.0,0007.61,0003.21,0002.50
2023-09-21 03:35:00,SystemResetWarning,0828.0,5.01,000.00,028.1,027.0,000.0,036.4,029.8,18.6,0000.0,0007.61,0003.20,0002.49
2023-09-21 03:36:00,SystemResetWarning,0828.0,5.01,000.00,028.1,027.0,000.0,036.4,029.8,18.6,0000.0,0007.57,0003.22,0002.49
2023-09-21 03:37:00,SystemResetWarning,0828.0,5.00,000.00,028.1,027.0,000.0,036.4,029.9,18.6,0000.0,0007.05,0003.20,0002.49
2023-09-21 03:38:00,SystemResetWarning,0827.8,4.99,000.00,028.2,027.1,000.0,036.4,029.9,18.5,0000.0,0006.93,0003.21,0002.48
2023-09-21 03:39:00,SystemResetWarning,0827.9,4.99,000.00,028.2,027.1,000.0,036.4,029.9,18.8,0000.0,0006.80,0003.22,0002.49
2023-09-21 03:40:00,SystemResetWarning,0828.0,5.01,000.00,028.2,027.2,000.0,036.5,030.0,18.5,0000.0,0007.34,0003.21,0002.50
2023-09-21 03:41:00,SystemResetWarning,0828.0,5.01,000.00,028.3,027.2,000.0,036.5,030.0,18.9,0000.0,0007.62,0003.22,0002.49
2023-09-21 03:42:00,SystemResetWarning,0828.0,4.98,000.00,028.3,026.3,000.0,036.5,029.8,18.7,0000.0,0007.40,0003.24,0002.48
2023-09-21 03:43:00,SystemResetWarning,0828.0,5.00,000.00,028.1,024.6,000.0,036.4,029.3,18.9,0000.0,0007.72,0003.25,0002.48
2023-09-21 03:44:00,SystemResetWarning,0828.0,5.01,000.00,028.0,024.2,000.0,036.4,029.2,19.5,0000.0,0008.28,0003.25,0002.49
2023-09-21 03:45:00,SystemResetWarning,0828.0,5.00,000.00,027.9,024.4,000.0,036.4,029.2,19.0,0000.0,0008.31,0003.25,0002.50
2023-09-21 03:46:00,SystemResetWarning,0828.0,5.00,000.00,027.8,024.7,000.0,036.4,029.2,18.8,0000.0,0008.45,0003.27,0002.52
2023-09-21 03:47:00,SystemResetWarning,0828.0,4.99,000.00,027.8,025.1,000.0,036.3,029.2,18.8,0000.0,0008.58,0003.28,0002.52
2023-09-21 03:48:00,SystemResetWarning,0828.1,5.00,000.00,027.8,025.4,000.0,036.3,029.3,18.8,0000.0,0008.56,0003.26,0002.53
2023-09-21 03:49:00,SystemResetWarning,0828.1,5.00,000.00,027.8,025.7,000.0,036.3,029.4,19.1,0000.0,0008.49,0003.28,0002.54
2023-09-21 03:50:00,SystemResetWarning,0828.0,5.00,000.00,027.8,025.9,000.0,036.3,029.4,19.3,0000.0,0008.40,0003.27,0002.53
2023-09-21 03:51:00,SystemResetWarning,0828.1,5.00,000.00,027.9,026.1,000.0,036.3,029.5,18.9,0000.0,0007.80,0003.29,0002.53
2023-09-21 03:52:00,SystemResetWarning,0828.0,5.00,000.00,027.9,026.2,000.0,036.3,029.5,18.9,0000.0,0007.24,0003.28,0002.54
2023-09-21 03:53:00,SystemResetWarning,0828.0,5.00,000.00,027.9,026.3,000.0,036.3,029.5,18.9,0000.0,0007.45,0003.26,0002.55
2023-09-21 03:54:00,SystemResetWarning,0828.0,5.00,000.00,027.9,026.5,000.0,036.3,029.6,18.7,0000.0,0007.25,0003.26,0002.56
2023-09-21 03:55:00,SystemResetWarning,0827.8,4.99,000.00,027.9,026.6,000.0,036.3,029.6,18.7,0000.0,0006.59,0003.28,0002.56
2023-09-21 03:56:00,SystemResetWarning,0827.8,4.99,000.00,028.0,026.7,000.0,036.3,029.7,18.7,0000.0,0006.62,0003.27,0002.55
2023-09-21 03:57:00,SystemResetWarning,0827.8,4.99,000.00,028.0,026.7,000.0,036.3,029.7,19.2,0000.0,0006.56,0003.26,0002.54
2023-09-21 03:58:00,SystemResetWarning,0828.0,5.00,000.00,028.0,026.8,000.0,036.3,029.8,19.4,0000.0,0006.33,0003.25,0002.54
2023-09-21 03:59:00,SystemResetWarning,0828.0,5.01,000.00,028.1,026.9,000.0,036.3,029.8,19.3,0000.0,0006.57,0003.28,0002.53
